FENGYUN 1C DEB, 43213

Orbit data source: Space-Track

FENGYUN 1C DEB, 43213 is space debris in SSO originally from a launch on Mon, 10 May 1999 UTC launched from the Taiyaun Space Center, China (TSC). Fengyun 1C debris stems from the Chinese weather satellite Fengyun-1C, which was intentionally destroyed by a Chinese anti-satellite missile in 2007. This event dramatically increased the amount of space debris, with thousands of trackable fragments posing hazards to satellites and human spaceflight. The Fengyun 1C debris cloud has become a focal point in discussions about space sustainability and the need for international regulations to prevent the creation of new debris.

Loading next visibility...
Identifier
43213, 1999-025EYM
Orbit
SSO
Country
Flag of CNCN / PRC
Related business
Manufacturer
Unknown
Mission
Spacecraft
Bus & Motor
Unknown
Mass
Unknown
Launch date (UTC)
1999-05-10 (27 years ago)
Launch vehicle
Unknown
Launch site
Taiyaun Space Center, China (TSC)
Object type
Payload
Rocket body
Debris
Shape & HBR
Unknown shape, 0.1 m
Radar Cross Section
Small (<0.1 m²)

Expand to show TLE details & history
Last TLE update: 2 days ago

TLE from 2 days ago
0 FENGYUN 1C DEB
1 43213U 99025EYM 26071.98065851  .00002978  00000-0  12853-2 0  9993
2 43213  98.7239 140.7883 0051541 326.7031  33.0909 14.24514152416578
Epoch: 2026-03-12T23:32Z
TLE epoch observation values (Epoch: 2026-03-12T23:32:08.895Z)
Latitude
Longitude
-22.87152°
Altitude
782.058 km
Speed
7.479 km/s
True Right ascension
09h 23m 09s
True Declination
0° 00' 00"
Sunlit
Object was in full shadow at epoch
Visualization orbit readout
Latitude
Unknown
Longitude
Unknown
Altitude
Unknown
Speed
Unknown
Apparent Right ascension
Unknown
Apparent Declination
Unknown
Sunlit
N/A
Visualization observer readout
Local Sidereal Time
02:57:29
Azimuth
Unknown
Elevation
Unknown
Doppler factor
Unknown
Orbital elements
Apogee altitude
844.314 km
Perigee altitude
770.245 km
Semi-major axis
7,185.417 km
Eccentricity
0.00515
Inclination
98.7239°
RAAN
140.7883°
Arg. of periapsis
326.7031°
True anomaly
33.41511°
Mean anomaly
33.0909°
Eccentric anomaly
33.25283°
Mean motion
3.56341 °/min
Orbital period
101.03 mins
BSTAR
0.0012853
Loading maneuver chart data...
Computing Atmospheric mass density...

Documentation

Showing up to 5 results
|